Location: Saint-Palais-sur-Mer
(45.6429°N, 1.0859°W)
Time: 01:01:50
(UTC+01:00)

Tiros 1 despin weight - Pass Details

Date: 14 February 2026
Orbit: 556 x 593 km, 48.2° (Epoch: 13 March)

Event Time Altitude Azimuth Distance (km) Brightness Sun altitude
Rises 16:16:39 0° 196° (SSW) 2,726 ? 19.1°
Reaches altitude 10° 16:19:38 10° 174° (S) 1,831 ? 18.7°
Maximum altitude 16:22:08 16° 137° (SE) 1,508 ? 18.4°
Drops below altitude 10° 16:24:38 10° 100° (E) 1,834 ? 18.0°
Sets 16:27:37 0° 78° (ENE) 2,733 ? 17.6°
